Tracking 31027 objects as of 19-Jul-2025
HD Live streaming from Space Station
objects crossing your sky now

CZ-4B DEB

Track CZ-4B DEB now!
10-day predictions


NORAD ID: 40530
Int'l Code: 2013-057C
Perigee: 582.1 km
Apogee: 842.8 km
Inclination: 75.1 °
Period: 98.9 minutes
Semi major axis: 7083 km
RCS: Unknown
Launch date: October 25, 2013
Source: People's Republic of China (PRC)
Launch site: Jiuquan Satellite Launch Center, China (JSC)

Note: This is SATELLITE DEBRIS
Your satellite tracking list
Your tracking list is empty




NASA's NSSDC Master Catalog

Two Line Element Set (TLE):
1 40530U 13057C   25199.14314404  .00001661  00000-0  30288-3 0  9993
2 40530  75.0506 133.4005 0184014 206.0883 153.0929 14.56251145543687
Source of the keplerian elements: AFSPC